NK7E Weather Reports


Display with metric or nautical units.
time (UTC)temp
F
wind
direction
speed
MPH
gust
MPH
rain 1hr
in
rain 24hr
in
rain mn
in
humidity
%
barometer
mb
20260510105517 77 270 6.0 12.0 0.00 0.00 0.00 17 1012.3
20260510104517 74 293 6.0 10.0 0.00 0.00 0.00 19 1012.4
20260510103517 73 315 1.0 3.0 0.00 0.00 0.00 22 1012.4
20260510102517 73 0 1.0 2.0 0.00 0.00 0.00 22 1012.5
20260510101517 74 0.0 2.0 0.00 0.00 0.00 21 1012.5
20260510100517 74 0 1.0 3.0 0.00 0.00 0.00 21 1012.4
20260510095517 75 0 1.0 3.0 0.00 0.00 0.00 21 1012.3
20260510094517 76 0.0 1.0 0.00 0.00 0.00 20 1012.2
20260510093517 76 0 1.0 3.0 0.00 0.00 0.00 19 1012.2
20260510092517 77 68 1.0 3.0 0.00 0.00 0.00 19 1012.1
20260510091517 78 90 1.0 3.0 0.00 0.00 0.00 19 1012.2
20260510090517 80 90 1.0 3.0 0.00 0.00 0.00 18 1012.2
20260510085517 82 0 1.0 3.0 0.00 0.00 0.00 16 1012.1
20260510084517 83 315 2.0 5.0 0.00 0.00 0.00 14 1012.0
20260510083517 84 270 1.0 4.0 0.00 0.00 0.00 14 1011.9
20260510082517 84 293 4.0 14.0 0.00 0.00 0.00 14 1011.9
20260510081517 83 293 5.0 11.0 0.00 0.00 0.00 14 1011.9
20260510080517 83 293 3.0 9.0 0.00 0.00 0.00 14 1012.0
20260510075517 83 293 3.0 7.0 0.00 0.00 0.00 14 1012.1
20260510074517 83 315 4.0 10.0 0.00 0.00 0.00 14 1012.2
20260510073517 83 338 4.0 11.0 0.00 0.00 0.00 15 1012.2
20260510072517 83 293 3.0 7.0 0.00 0.00 0.00 15 1012.4
20260510071517 83 293 3.0 8.0 0.00 0.00 0.00 15 1012.4
20260510070517 83 293 7.0 11.0 0.00 0.00 0.00 15 1012.5
20260510065517 83 293 5.0 9.0 0.00 0.00 0.00 14 1012.5
20260510064517 83 293 5.0 9.0 0.00 0.00 0.00 14 1012.4
20260510063517 82 293 8.0 12.0 0.00 0.00 0.00 15 1012.3
20260510062517 83 270 7.0 13.0 0.00 0.00 0.00 15 1012.1
20260510061517 84 270 6.0 12.0 0.00 0.00 0.00 15 1012.0
20260510060517 87 270 5.0 10.0 0.00 0.00 0.00 13 1011.7
20260510055517 87 315 5.0 11.0 0.00 0.00 0.00 13 1011.4
20260510054517 87 315 4.0 12.0 0.00 0.00 0.00 13 1011.4
20260510053517 87 315 4.0 11.0 0.00 0.00 0.00 13 1011.2
20260510052517 87 293 6.0 13.0 0.00 0.00 0.00 13 1011.1
20260510051517 87 293 5.0 11.0 0.00 0.00 0.00 13 1011.1
20260510050517 87 315 6.0 12.0 0.00 0.00 0.00 13 1011.1
20260510045517 87 338 6.0 11.0 0.00 0.00 0.00 13 1011.0
20260510044517 87 315 5.0 13.0 0.00 0.00 0.00 13 1011.0
20260510043517 87 315 5.0 10.0 0.00 0.00 0.00 13 1010.9
20260510042517 87 293 4.0 8.0 0.00 0.00 0.00 13 1010.6
20260510041517 88 315 5.0 12.0 0.00 0.00 0.00 13 1010.6
20260510040517 88 293 5.0 12.0 0.00 0.00 0.00 13 1010.5
20260510035517 88 338 4.0 11.0 0.00 0.00 0.00 13 1010.3
20260510034517 87 315 4.0 9.0 0.00 0.00 0.00 13 1010.2
20260510033517 87 315 3.0 5.0 0.00 0.00 0.00 13 1010.1
20260510032517 87 338 4.0 9.0 0.00 0.00 0.00 13 1010.0
20260510031517 88 315 2.0 7.0 0.00 0.00 0.00 13 1009.7
20260510030517 88 338 2.0 4.0 0.00 0.00 0.00 12 1009.7
20260510025517 89 315 5.0 11.0 0.00 0.00 0.00 12 1009.6
20260510024517 89 315 3.0 8.0 0.00 0.00 0.00 12 1009.5
20260510023517 90 315 3.0 8.0 0.00 0.00 0.00 12 1009.4
20260510022517 90 315 3.0 7.0 0.00 0.00 0.00 12 1009.4
20260510021517 90 293 4.0 10.0 0.00 0.00 0.00 11 1009.4
20260510020517 91 293 5.0 9.0 0.00 0.00 0.00 11 1009.3
20260510015517 92 293 5.0 11.0 0.00 0.00 0.00 11 1009.2
20260510014517 92 270 4.0 9.0 0.00 0.00 0.00 11 1009.2
20260510013517 92 293 6.0 13.0 0.00 0.00 0.00 11 1009.2
20260510012517 93 270 6.0 11.0 0.00 0.00 0.00 11 1009.2
20260510011517 93 270 4.0 10.0 0.00 0.00 0.00 11 1009.2
20260510010517 94 248 4.0 9.0 0.00 0.00 0.00 11 1009.2
20260510005517 94 293 5.0 11.0 0.00 0.00 0.00 10 1009.2
20260510004517 94 338 5.0 14.0 0.00 0.00 0.00 10 1009.3
20260510003517 95 270 4.0 9.0 0.00 0.00 0.00 10 1009.2
20260510002517 95 293 7.0 13.0 0.00 0.00 0.00 10 1009.3
20260510001517 95 293 7.0 13.0 0.00 0.00 0.00 11 1009.3
20260510000517 96 270 6.0 12.0 0.00 0.00 0.00 10 1009.3
20260509235517 96 270 4.0 13.0 0.00 0.00 0.00 10 1009.4
20260509234517 96 293 3.0 8.0 0.00 0.00 0.00 10 1009.4
20260509233517 96 293 5.0 11.0 0.00 0.00 0.00 10 1009.6
20260509232517 96 270 9.0 15.0 0.00 0.00 0.00 10 1009.6
20260509231517 96 293 6.0 11.0 0.00 0.00 0.00 11 1009.7
20260509230517 96 293 8.0 14.0 0.00 0.00 0.00 11 1009.8
20260509225517 96 293 6.0 14.0 0.00 0.00 0.00 11 1009.9
20260509224517 96 270 5.0 9.0 0.00 0.00 0.00 10 1010.1
20260509223517 97 270 6.0 14.0 0.00 0.00 0.00 11 1010.3
20260509222517 98 248 7.0 13.0 0.00 0.00 0.00 11 1010.2
20260509221517 96 270 5.0 12.0 0.00 0.00 0.00 11 1010.3
20260509220517 97 293 7.0 19.0 0.00 0.00 0.00 11 1010.4
20260509215517 97 225 4.0 9.0 0.00 0.00 0.00 11 1010.5
20260509214517 97 270 5.0 12.0 0.00 0.00 0.00 11 1010.7
20260509213517 97 225 5.0 10.0 0.00 0.00 0.00 11 1010.7
20260509212517 97 270 3.0 8.0 0.00 0.00 0.00 11 1010.8
20260509211517 97 248 6.0 12.0 0.00 0.00 0.00 11 1011.0
20260509210517 97 270 5.0 13.0 0.00 0.00 0.00 12 1011.2
20260509205517 96 248 5.0 11.0 0.00 0.00 0.00 12 1011.3
20260509204517 96 270 7.0 14.0 0.00 0.00 0.00 12 1011.5
20260509203516 95 293 8.0 16.0 0.00 0.00 0.00 12 1011.7
20260509202517 96 270 7.0 17.0 0.00 0.00 0.00 12 1011.6
20260509201517 95 248 7.0 15.0 0.00 0.00 0.00 12 1011.8
20260509200516 95 248 6.0 12.0 0.00 0.00 0.00 12 1012.0
20260509195517 94 293 8.0 17.0 0.00 0.00 0.00 13 1012.2
20260509194517 94 270 7.0 14.0 0.00 0.00 0.00 13 1012.3
20260509193517 93 270 12.0 22.0 0.00 0.00 0.00 13 1012.2
20260509192517 94 270 9.0 16.0 0.00 0.00 0.00 13 1012.4
20260509191517 94 293 8.0 18.0 0.00 0.00 0.00 14 1012.6
20260509190517 94 270 6.0 13.0 0.00 0.00 0.00 14 1012.5
20260509185517 93 270 8.0 14.0 0.00 0.00 0.00 14 1012.7
20260509184517 93 270 7.0 15.0 0.00 0.00 0.00 14 1012.7
20260509183517 93 270 7.0 14.0 0.00 0.00 0.00 15 1013.0
20260509182517 93 225 5.0 11.0 0.00 0.00 0.00 14 1013.1
20260509181516 92 225 4.0 7.0 0.00 0.00 0.00 15 1013.3
20260509180516 92 203 6.0 12.0 0.00 0.00 0.00 15 1013.5
20260509175517 91 225 3.0 9.0 0.00 0.00 0.00 16 1013.6
20260509174517 90 203 3.0 7.0 0.00 0.00 0.00 17 1013.8
20260509173517 90 180 3.0 9.0 0.00 0.00 0.00 17 1013.8
20260509172517 89 158 3.0 7.0 0.00 0.00 0.00 18 1013.9
20260509171516 89 203 2.0 5.0 0.00 0.00 0.00 18 1013.9
20260509170516 88 270 2.0 8.0 0.00 0.00 0.00 19 1013.9
20260509165516 89 158 1.0 4.0 0.00 0.00 0.00 19 1013.9
20260509164516 87 90 1.0 3.0 0.00 0.00 0.00 20 1014.0
20260509163516 86 270 2.0 6.0 0.00 0.00 0.00 20 1014.0
20260509162516 86 45 2.0 3.0 0.00 0.00 0.00 20 1014.0
20260509161517 85 203 2.0 5.0 0.00 0.00 0.00 21 1014.0
20260509160516 84 180 1.0 5.0 0.00 0.00 0.00 22 1014.0
20260509155516 83 180 2.0 4.0 0.00 0.00 0.00 22 1014.0
20260509154516 82 203 1.0 3.0 0.00 0.00 0.00 23 1014.0
20260509153517 82 180 1.0 2.0 0.00 0.00 0.00 24 1014.0
20260509152517 82 180 2.0 5.0 0.00 0.00 0.00 25 1013.9
20260509151516 81 0.0 3.0 0.00 0.00 0.00 27 1013.9
20260509150516 80 0.0 0.0 0.00 0.00 0.00 27 1013.9
20260509145516 78 0.0 0.0 0.00 0.00 0.00 30 1013.9
20260509144516 77 0.0 0.0 0.00 0.00 0.00 30 1014.0
20260509143516 76 0.0 0.0 0.00 0.00 0.00 30 1013.9
20260509142516 75 0.0 0.0 0.00 0.00 0.00 32 1013.8
20260509141516 74 0.0 0.0 0.00 0.00 0.00 34 1013.7
20260509140516 73 0.0 0.0 0.00 0.00 0.00 35 1013.7
20260509135516 73 0.0 1.0 0.00 0.00 0.00 33 1013.6
20260509134516 71 0 2.0 3.0 0.00 0.00 0.00 33 1013.5
20260509133516 70 0 2.0 4.0 0.00 0.00 0.00 33 1013.4
20260509132516 69 0 3.0 4.0 0.00 0.00 0.00 34 1013.3
20260509131516 69 0 2.0 3.0 0.00 0.00 0.00 33 1013.3
20260509130516 68 0 3.0 4.0 0.00 0.00 0.00 33 1013.2
20260509125516 68 0 3.0 4.0 0.00 0.00 0.00 33 1013.0
20260509124516 68 0 3.0 4.0 0.00 0.00 0.00 32 1012.9
20260509123516 69 0 3.0 5.0 0.00 0.00 0.00 32 1012.9
20260509122516 68 0 3.0 3.0 0.00 0.00 0.00 32 1012.8
20260509121517 69 0 2.0 5.0 0.00 0.00 0.00 31 1012.8
20260509120516 69 0 3.0 4.0 0.00 0.00 0.00 32 1012.7
20260509115516 69 0 2.0 4.0 0.00 0.00 0.00 31 1012.6
20260509114516 69 0 2.0 3.0 0.00 0.00 0.00 31 1012.7
20260509113516 69 0 1.0 3.0 0.00 0.00 0.00 31 1012.7
20260509112516 70 0 1.0 3.0 0.00 0.00 0.00 30 1012.6
20260509111516 70 23 1.0 3.0 0.00 0.00 0.00 30 1012.5
20260509110516 70 23 2.0 3.0 0.00 0.00 0.00 29 1012.5